[[{"header":{"parameterUnit":"m.s-1","parameterCategory":1,"la1":30.2991,"la2":30.254,"lo1":-89.0895,"lo2":-89.0444,"dy":0.0017,"dx":0.0017,"nx":28,"ny":28,"refTime":"2024-02-06T03:00:00:Z","depth":0,"parameterNumber":2,"parameterNumberName":"U-component_of_WINDS"},"data":[0,0,0,0,0,0,0,0,0,0,0,0,0,0,0,0,0,0,0,0,0,0,0,0,0,0,0,0,0,0,0,0,0,0,0,0,0,0,0,0,0,0,0,0,0,0,0,0,0,0,0,0,0,0,0,0,0,0,2.3066,2.3067,0,2.31,2.3101,2.3101,2.3061,2.306,2.3059,2.3057,2.3091,2.3093,2.3095,0,0,0,0,0,0,0,0,0,0,0,0,0,2.2967,2.2969,2.3066,2.3067,2.3067,2.31,2.3101,2.3101,2.3062,2.306,2.3058,2.3056,2.309,2.3093,2.3096,0,0,0,0,0,0,0,0,0,0,0,0,0,2.3007,2.297,2.3066,2.3052,2.3051,2.31,2.3101,2.3101,2.3062,2.306,2.3058,2.3056,2.3089,2.3093,2.3096,2.3161,0,0,2.3106,2.3108,0,0,0,0,0,0,0,0,2.3005,2.301,2.3053,2.3053,2.3052,2.3074,2.3078,2.3121,2.3063,2.3058,2.3057,2.3055,2.3087,2.3091,2.3102,2.3163,2.3164,2.3107,2.3109,2.311,2.3111,0,0,0,0,0,0,0,2.3002,2.3009,2.308,2.3054,2.3053,2.3043,2.3046,2.3086,2.3084,2.3058,2.3055,2.306,2.3086,2.3099,2.3102,2.3165,2.3107,2.311,2.3112,2.3113,2.3283,2.3285,0,0,0,0,0,0,2.3001,2.3007,2.3079,2.3081,2.3022,2.3047,2.305,2.3069,2.3084,2.3084,2.3062,2.3058,2.3094,2.3098,2.3103,2.3182,2.311,2.3113,2.3115,2.328,2.3283,2.3286,0,0,0,0,0,0,2.2999,2.3008,2.3077,2.3043,2.3051,2.3051,2.3073,2.3071,2.3083,2.3087,2.3086,2.3075,2.3092,2.3098,2.3148,2.3182,2.3115,2.3118,2.3277,2.3281,2.3285,2.3339,0,0,0,0,0,0,2.2996,2.3007,2.3032,2.3044,2.3053,2.3121,2.3075,2.3073,2.309,2.3085,2.3099,2.3099,2.3091,2.3143,2.3151,2.3186,2.3121,2.3274,2.3279,2.3283,2.3334,2.3344,2.3352,0,0,0,0,0,2.2993,2.3045,2.3034,2.3042,2.3084,2.3123,2.3129,2.3119,2.3093,2.3118,2.312,2.3098,2.3177,2.3148,2.3157,2.3193,2.3272,2.3278,2.3283,2.3329,2.3342,2.3352,0,0,0,0,0,0,2.3037,2.3047,2.3034,2.3091,2.3107,2.3117,2.3148,2.3132,2.3155,2.3149,2.3136,2.3139,2.3192,2.3197,2.3165,2.3258,2.322,2.3228,2.3252,2.3264,2.3273,2.3271,2.3123,0,0,0,0,0,2.3053,2.3085,2.3091,2.3142,2.315,2.3148,2.3164,2.3156,2.3171,2.3177,2.3183,2.3199,2.3227,2.3246,2.3272,2.3334,2.3337,2.3364,2.3373,2.3381,2.3387,2.3422,2.3434,2.3304,2.3304,2.3304,0,0,2.3088,2.3097,2.3117,2.3151,2.3162,2.3194,2.3154,2.3189,2.3214,2.3183,2.323,2.3235,2.3251,2.3308,2.3333,2.3314,2.3424,2.3388,2.3394,2.3396,2.3429,2.3441,2.3452,2.3308,2.3307,2.3307,0,0,2.3167,2.3177,2.322,2.3233,2.325,2.3248,2.3259,2.3271,2.3274,2.3321,2.3299,2.3327,2.3376,2.3389,2.3402,2.3488,2.3469,2.3497,2.3545,2.3579,2.3589,2.3598,2.3629,2.3641,2.3503,2.3504,2.3504,0,2.3207,2.3255,2.3245,2.3283,2.3299,2.3273,2.3317,2.3329,2.3355,2.3366,2.3345,2.3406,2.3416,2.3475,2.3496,2.3508,2.352,2.3495,2.3588,2.3597,2.3606,2.3635,2.3647,2.3507,2.3507,2.3506,2.3506,0,2.3304,2.3339,2.3372,2.3398,2.3417,2.3458,2.3454,2.3475,2.3465,2.3466,2.3514,2.3525,2.3553,2.3567,2.3557,2.3625,2.3613,2.3591,2.3552,2.3622,2.3649,2.366,2.3512,2.351,2.3509,2.3509,0,0,2.3411,2.3432,2.3444,2.3456,2.3474,2.35,2.354,2.3569,2.3587,2.3606,2.364,2.3682,2.3662,2.3677,2.3668,2.3698,2.3766,2.3672,2.3672,2.3689,2.3843,2.3861,2.3874,2.3754,2.3756,2.3758,2.3842,0,2.3491,2.3561,2.3553,2.362,2.3652,2.3629,2.3664,2.3679,2.3681,2.3708,2.371,2.3741,2.3712,2.3721,2.3749,2.3752,2.3797,2.3746,2.3786,2.3787,2.3782,2.3888,2.3906,2.3985,2.3853,2.3855,2.3856,0,2.3593,2.3617,2.3687,2.3701,2.3714,2.3746,2.3772,2.3799,2.3815,2.3815,2.3833,2.3819,2.386,2.3821,2.3877,2.3843,2.3859,2.3863,2.3866,2.3869,2.3826,2.3895,2.401,2.4022,2.3873,2.3871,2.387,0,2.3665,2.3714,2.3762,2.3773,2.3791,2.3814,2.3823,2.3837,2.3855,2.3878,2.389,2.3917,2.3932,2.3953,2.3948,2.392,2.4006,2.3966,2.4006,2.4007,2.4025,2.4024,2.4145,2.4036,2.4035,2.4035,2.4035,0,2.3755,2.3799,2.3795,2.3825,2.3874,2.3865,2.3914,2.3919,2.3933,2.3963,2.3945,2.3974,2.3965,2.3994,2.399,2.4038,2.4044,2.4045,2.4044,2.4047,2.4047,2.4057,2.4052,2.4038,2.4038,2.4037,2.4036,0,2.3843,2.3842,2.3894,2.3907,2.3912,2.3947,2.3958,2.3987,2.3988,2.4027,2.4036,2.4037,2.4071,2.4068,2.4105,2.4102,2.4161,2.4153,2.4156,2.4154,2.4195,2.4191,2.4326,2.4344,2.4223,2.4224,2.4225,0,2.3901,2.3934,2.3952,2.3971,2.3982,2.4013,2.4032,2.4025,2.4045,2.4067,2.4093,2.4125,2.415,2.4204,2.4209,2.4237,2.423,2.4275,2.4234,2.4237,2.4231,2.4229,2.4233,2.4283,2.4285,2.4286,2.4287,0,2.4003,2.4002,2.4029,2.4058,2.4081,2.4102,2.4122,2.4139,2.4134,2.4157,2.4191,2.4211,2.425,2.4282,2.4309,2.4317,2.4302,2.43,2.4311,2.4314,2.4315,2.4316,2.4178,2.4297,2.4296,2.4295,2.4294,2.4294,2.4078,2.4107,2.4125,2.4156,2.4171,2.419,2.4218,2.4223,2.4251,2.4282,2.4276,2.4315,2.4332,2.4367,2.4379,2.4409,2.4393,2.4408,2.4412,2.4416,2.4421,2.431,2.4414,2.4414,2.4413,2.4413,2.4413,0,2.418,2.419,2.422,2.4249,2.4274,2.4257,2.4279,2.4301,2.4335,2.4353,2.4378,2.4418,2.4449,2.4457,2.4487,2.451,2.4503,2.4518,2.4516,2.4519,2.4434,2.4422,2.4523,2.4523,2.4523,2.4523,2.4523,2.4523,2.4236,2.4285,2.4286,2.4342,2.4351,2.439,2.4403,2.4421,2.4435,2.4481,2.4507,2.4512,2.4526,2.4557,2.4585,2.4586,2.4598,2.4616,2.4615,2.4535,2.4524,2.4514,2.4502,2.4619,2.4619,2.4697,2.4697,2.4698]},{"header":{"parameterUnit":"m.s-1","parameterCategory":1,"la1":30.2991,"la2":30.254,"lo1":-89.0895,"lo2":-89.0444,"dy":0.0017,"dx":0.0017,"nx":28,"ny":28,"refTime":"2024-02-06T03:00:00:Z","depth":0,"parameterNumber":3,"parameterNumberName":"V-component_of_WINDS"},"data":[0,0,0,0,0,0,0,0,0,0,0,0,0,0,0,0,0,0,0,0,0,0,0,0,0,0,0,0,0,0,0,0,0,0,0,0,0,0,0,0,0,0,0,0,0,0,0,0,0,0,0,0,0,0,0,0,0,0,-4.135,-4.1351,0,-4.1475,-4.1476,-4.1477,-4.1447,-4.1444,-4.1442,-4.144,-4.1567,-4.1572,-4.1578,0,0,0,0,0,0,0,0,0,0,0,0,0,-4.1086,-4.1091,-4.135,-4.1351,-4.1353,-4.1474,-4.1476,-4.1478,-4.1447,-4.1444,-4.1441,-4.1438,-4.1565,-4.1572,-4.1578,0,0,0,0,0,0,0,0,0,0,0,0,0,-4.1204,-4.1092,-4.1349,-4.1352,-4.1354,-4.1474,-4.1476,-4.1478,-4.1448,-4.1444,-4.144,-4.1437,-4.1563,-4.1571,-4.1579,-4.1704,0,0,-4.1605,-4.1609,0,0,0,0,0,0,0,0,-4.1198,-4.1214,-4.135,-4.1352,-4.1354,-4.1441,-4.143,-4.1554,-4.1449,-4.1412,-4.144,-4.1435,-4.1528,-4.1539,-4.157,-4.171,-4.1716,-4.1606,-4.1611,-4.1615,-4.1617,0,0,0,0,0,0,0,-4.119,-4.1209,-4.1399,-4.1352,-4.1355,-4.1348,-4.136,-4.1453,-4.1489,-4.1415,-4.1413,-4.1428,-4.1528,-4.1562,-4.1573,-4.1718,-4.1606,-4.1613,-4.1619,-4.1622,-4.1969,-4.1973,0,0,0,0,0,0,-4.118,-4.1202,-4.1395,-4.1403,-4.1265,-4.1355,-4.137,-4.1417,-4.1488,-4.1495,-4.1431,-4.1426,-4.155,-4.1563,-4.1578,-4.1731,-4.1615,-4.1623,-4.1628,-4.1965,-4.197,-4.1975,0,0,0,0,0,0,-4.1174,-4.1197,-4.139,-4.1302,-4.1326,-4.1364,-4.1417,-4.1421,-4.1455,-4.15,-4.1506,-4.1459,-4.1547,-4.1566,-4.1674,-4.1734,-4.1626,-4.1634,-4.196,-4.1967,-4.1972,-4.2036,0,0,0,0,0,0,-4.1167,-4.1195,-4.1243,-4.1303,-4.1331,-4.1484,-4.1421,-4.1426,-4.147,-4.1465,-4.1528,-4.1535,-4.1546,-4.1661,-4.1682,-4.1744,-4.1641,-4.1955,-4.1963,-4.197,-4.2029,-4.2044,-4.2057,0,0,0,0,0,-4.1157,-4.1255,-4.1246,-4.1269,-4.1391,-4.1488,-4.1503,-4.1514,-4.1475,-4.1524,-4.1553,-4.1533,-4.1724,-4.1673,-4.1696,-4.1761,-4.1951,-4.1961,-4.197,-4.2023,-4.2041,-4.2056,0,0,0,0,0,0,-4.12,-4.1263,-4.1253,-4.1373,-4.1426,-4.1482,-4.1543,-4.1533,-4.1596,-4.1589,-4.1599,-4.1614,-4.1725,-4.1753,-4.1695,-4.1887,-4.1832,-4.1847,-4.1864,-4.1882,-4.1896,-4.1887,-4.1648,0,0,0,0,0,-4.1224,-4.1297,-4.1348,-4.1449,-4.1476,-4.1506,-4.1548,-4.1552,-4.1606,-4.1628,-4.1665,-4.1718,-4.179,-4.1838,-4.1906,-4.2033,-4.2047,-4.2089,-4.2103,-4.2115,-4.2127,-4.2198,-4.2218,-4.2005,-4.2005,-4.2005,0,0,-4.1273,-4.1317,-4.1362,-4.1459,-4.15,-4.1576,-4.1524,-4.1606,-4.1663,-4.164,-4.1745,-4.1774,-4.1835,-4.1953,-4.2007,-4.1981,-4.2189,-4.2126,-4.2135,-4.2142,-4.221,-4.223,-4.2248,-4.2012,-4.201,-4.2009,0,0,-4.1402,-4.1442,-4.1531,-4.1574,-4.1637,-4.1656,-4.1678,-4.1737,-4.1756,-4.1861,-4.1846,-4.1914,-4.2038,-4.2082,-4.2121,-4.227,-4.2255,-4.2292,-4.2364,-4.2434,-4.245,-4.2465,-4.252,-4.2539,-4.2304,-4.2304,-4.2304,0,-4.1455,-4.1569,-4.1579,-4.1663,-4.1707,-4.1691,-4.1783,-4.1823,-4.1905,-4.1936,-4.1906,-4.2062,-4.2102,-4.2231,-4.2268,-4.2299,-4.2325,-4.2284,-4.2447,-4.2462,-4.2476,-4.2529,-4.2549,-4.2308,-4.2308,-4.2307,-4.2307,0,-4.1632,-4.1712,-4.1777,-4.1858,-4.1909,-4.1996,-4.202,-4.2071,-4.2071,-4.2094,-4.2202,-4.2249,-4.2329,-4.2359,-4.2359,-4.249,-4.2472,-4.2444,-4.2389,-4.2501,-4.255,-4.257,-4.2314,-4.2313,-4.2311,-4.231,0,0,-4.1791,-4.1878,-4.1901,-4.1939,-4.2008,-4.207,-4.2157,-4.2235,-4.228,-4.2337,-4.2412,-4.2518,-4.2494,-4.2538,-4.2543,-4.2604,-4.2721,-4.2569,-4.257,-4.2597,-4.2869,-4.2891,-4.2913,-4.2711,-4.2715,-4.2718,-4.2865,0,-4.1927,-4.2081,-4.2094,-4.2233,-4.2308,-4.2294,-4.2371,-4.2422,-4.2446,-4.2513,-4.254,-4.2616,-4.2577,-4.2604,-4.2663,-4.2694,-4.2776,-4.2683,-4.2781,-4.2785,-4.2768,-4.2939,-4.2961,-4.3098,-4.2884,-4.2887,-4.2889,0,-4.2106,-4.2171,-4.2318,-4.2379,-4.241,-4.2479,-4.2553,-4.2617,-4.2675,-4.2689,-4.2739,-4.2737,-4.2828,-4.2769,-4.2896,-4.2832,-4.2873,-4.2895,-4.29,-4.291,-4.2844,-4.2955,-4.3141,-4.3162,-4.292,-4.2917,-4.2915,0,-4.2209,-4.2333,-4.2437,-4.2469,-4.2542,-4.2591,-4.2624,-4.2679,-4.2726,-4.279,-4.2821,-4.2895,-4.2936,-4.2994,-4.3012,-4.2967,-4.3138,-4.3081,-4.3153,-4.3153,-4.319,-4.3188,-4.3387,-4.3215,-4.3214,-4.3214,-4.3213,0,-4.2361,-4.2452,-4.2485,-4.2549,-4.2651,-4.2665,-4.2766,-4.2796,-4.2845,-4.2916,-4.2908,-4.2975,-4.2994,-4.3064,-4.3079,-4.3182,-4.32,-4.3215,-4.3218,-4.3216,-4.3215,-4.3244,-4.3235,-4.3219,-4.3218,-4.3217,-4.3216,0,-4.2493,-4.2518,-4.2632,-4.2693,-4.271,-4.2783,-4.2835,-4.2898,-4.2921,-4.3011,-4.3033,-4.307,-4.3152,-4.3176,-4.3275,-4.3285,-4.3407,-4.34,-4.3388,-4.3388,-4.346,-4.3453,-4.3685,-4.3717,-4.3523,-4.3525,-4.3526,0,-4.2588,-4.2658,-4.2727,-4.2774,-4.2809,-4.2885,-4.2933,-4.295,-4.3001,-4.3074,-4.3128,-4.321,-4.3276,-4.3409,-4.3445,-4.3521,-4.3517,-4.3593,-4.3528,-4.3525,-4.352,-4.3516,-4.3524,-4.3606,-4.3608,-4.3609,-4.3611,0,-4.2755,-4.2765,-4.2835,-4.2911,-4.2969,-4.3029,-4.3087,-4.3126,-4.3151,-4.3208,-4.3293,-4.3345,-4.3447,-4.3529,-4.3606,-4.364,-4.3631,-4.3631,-4.3652,-4.3652,-4.3642,-4.365,-4.3422,-4.3626,-4.3624,-4.3623,-4.3622,-4.3622,-4.2873,-4.2936,-4.2994,-4.3073,-4.3119,-4.3174,-4.3236,-4.3268,-4.3339,-4.3424,-4.3429,-4.3522,-4.3581,-4.3684,-4.3722,-4.3795,-4.3773,-4.3803,-4.3811,-4.3818,-4.3825,-4.363,-4.3809,-4.3809,-4.3809,-4.3808,-4.3808,0,-4.3041,-4.3079,-4.3151,-4.3233,-4.3296,-4.3282,-4.3345,-4.3399,-4.348,-4.3536,-4.3602,-4.3701,-4.3781,-4.3824,-4.3903,-4.3954,-4.3951,-4.3974,-4.3971,-4.398,-4.384,-4.3814,-4.3975,-4.3975,-4.3975,-4.3975,-4.3975,-4.3975,-4.3136,-4.3242,-4.3259,-4.3388,-4.3425,-4.3516,-4.3554,-4.3605,-4.3649,-4.376,-4.3827,-4.3854,-4.3906,-4.3989,-4.4062,-4.4073,-4.4103,-4.4129,-4.4137,-4.4006,-4.3989,-4.3973,-4.3949,-4.4135,-4.4136,-4.4271,-4.4273,-4.4274]}]]